| time (UTC) | temp C | wind direction | speed KPH | gust KPH | rain 1hr cm | rain 24hr cm | rain mn cm | humidity % | barometer mb |
| 20260906230017 | 36 | 106 | 8.0 | 19.3 | 0.00 | 0.00 | 0.00 | 40 | 1008.4 |
| 20260906224520 | 36 | 88 | 14.5 | 27.4 | 0.00 | 0.00 | 0.00 | 39 | 1008.4 |
| 20260906223018 | 36 | 109 | 14.5 | 27.4 | 0.00 | 0.00 | 0.00 | 40 | 1008.4 |
| 20260906221515 | 36 | 97 | 11.3 | 19.3 | 0.00 | 0.00 | 0.00 | 41 | 1008.6 |
| 20260906220016 | 36 | 87 | 12.9 | 19.3 | 0.00 | 0.00 | 0.00 | 41 | 1008.6 |
| 20260906214519 | 36 | 140 | 8.0 | 24.1 | 0.00 | 0.00 | 0.00 | 40 | 1008.8 |
| 20260906213013 | 36 | 86 | 14.5 | 19.3 | 0.00 | 0.00 | 0.00 | 41 | 1009.0 |
| 20260906211510 | 36 | 61 | 12.9 | 25.7 | 0.00 | 0.00 | 0.00 | 41 | 1009.1 |
| 20260906210008 | 36 | 76 | 11.3 | 19.3 | 0.00 | 0.00 | 0.00 | 40 | 1009.3 |
| 20260906204508 | 36 | 44 | 6.4 | 22.5 | 0.00 | 0.00 | 0.00 | 41 | 1009.4 |
| 20260906203014 | 36 | 64 | 6.4 | 24.1 | 0.00 | 0.00 | 0.00 | 41 | 1009.6 |
| 20260906201505 | 35 | 64 | 8.0 | 22.5 | 0.00 | 0.00 | 0.00 | 44 | 1009.7 |
| 20260906200011 | 36 | 102 | 6.4 | 17.7 | 0.00 | 0.00 | 0.00 | 42 | 1009.9 |
| 20260906194502 | 35 | 94 | 11.3 | 16.1 | 0.00 | 0.00 | 0.00 | 45 | 1010.0 |
| 20260906193002 | 35 | 88 | 11.3 | 17.7 | 0.00 | 0.00 | 0.00 | 44 | 1010.2 |
| 20260906191601 | 35 | 156 | 11.3 | 22.5 | 0.00 | 0.00 | 0.00 | 45 | 1010.3 |
| 20260906190111 | 35 | 63 | 9.7 | 17.7 | 0.00 | 0.00 | 0.00 | 45 | 1010.4 |
| 20260906184559 | 35 | 86 | 14.5 | 22.5 | 0.00 | 0.00 | 0.00 | 46 | 1010.6 |
| 20260906183108 | 35 | 69 | 8.0 | 19.3 | 0.00 | 0.00 | 0.00 | 48 | 1010.8 |
| 20260906181554 | 35 | 86 | 11.3 | 25.7 | 0.00 | 0.00 | 0.00 | 47 | 1011.0 |
| 20260906180110 | 34 | 77 | 3.2 | 25.7 | 0.00 | 0.00 | 0.00 | 51 | 1011.2 |
| 20260906174552 | 33 | 87 | 9.7 | 19.3 | 0.00 | 0.00 | 0.00 | 50 | 1011.4 |
| 20260906173050 | 33 | 39 | 12.9 | 20.9 | 0.00 | 0.00 | 0.00 | 52 | 1011.7 |
| 20260906171548 | 33 | 92 | 8.0 | 20.9 | 0.00 | 0.00 | 0.00 | 52 | 1012.1 |
| 20260906170111 | 33 | 101 | 8.0 | 17.7 | 0.00 | 0.00 | 0.00 | 53 | 1012.3 |
| 20260906164544 | 32 | 150 | 11.3 | 17.7 | 0.00 | 0.00 | 0.00 | 53 | 1012.3 |
| 20260906163044 | 32 | 128 | 9.7 | 16.1 | 0.00 | 0.00 | 0.00 | 53 | 1012.4 |
| 20260906161539 | 32 | 70 | 3.2 | 16.1 | 0.00 | 0.00 | 0.00 | 58 | 1012.4 |
| 20260906160037 | 32 | 82 | 6.4 | 14.5 | 0.00 | 0.00 | 0.00 | 61 | 1012.4 |
| 20260906154534 | 31 | 91 | 11.3 | 14.5 | 0.00 | 0.00 | 0.00 | 62 | 1012.3 |
| 20260906153034 | 31 | 95 | 8.0 | 14.5 | 0.00 | 0.00 | 0.00 | 63 | 1012.3 |
| 20260906151529 | 30 | 141 | 3.2 | 9.7 | 0.00 | 0.00 | 0.00 | 66 | 1012.3 |
| 20260906150024 | 30 | 46 | 4.8 | 9.7 | 0.00 | 0.00 | 0.00 | 69 | 1012.1 |
| 20260906144532 | 29 | 90 | 1.6 | 8.0 | 0.00 | 0.00 | 0.00 | 70 | 1012.1 |
| 20260906143019 | 28 | 72 | 4.8 | 8.0 | 0.00 | 0.00 | 0.00 | 73 | 1012.1 |
| 20260906141515 | 27 | 122 | 3.2 | 9.7 | 0.00 | 0.00 | 0.00 | 75 | 1012.1 |
| 20260906140014 | 27 | 98 | 4.8 | 9.7 | 0.00 | 0.00 | 0.00 | 77 | 1012.2 |
| 20260906134522 | 26 | 94 | 6.4 | 11.3 | 0.00 | 0.00 | 0.00 | 79 | 1011.9 |
| 20260906133015 | 26 | 102 | 4.8 | 11.3 | 0.00 | 0.00 | 0.00 | 82 | 1012.0 |
| 20260906131511 | 25 | 86 | 6.4 | 11.3 | 0.00 | 0.00 | 0.00 | 83 | 1011.9 |
| 20260906130010 | 25 | 93 | 8.0 | 12.9 | 0.00 | 0.00 | 0.00 | 85 | 1011.9 |
| 20260906124513 | 24 | 86 | 6.4 | 11.3 | 0.00 | 0.00 | 0.00 | 86 | 1011.7 |
| 20260906123009 | 23 | 82 | 4.8 | 8.0 | 0.00 | 0.00 | 0.00 | 86 | 1011.7 |
| 20260906121508 | 23 | 82 | 3.2 | 8.0 | 0.00 | 0.00 | 0.00 | 86 | 1011.5 |
| 20260906120006 | 23 | 109 | 0.0 | 6.4 | 0.00 | 0.00 | 0.00 | 85 | 1011.3 |
| 20260906114504 | 23 | 109 | 3.2 | 6.4 | 0.00 | 0.00 | 0.00 | 86 | 1011.1 |
| 20260906113003 | 23 | 76 | 3.2 | 4.8 | 0.00 | 0.00 | 0.00 | 86 | 1011.1 |
| 20260906111503 | 23 | 75 | 1.6 | 4.8 | 0.00 | 0.00 | 0.00 | 85 | 1011.0 |
| 20260906110105 | 23 | 108 | 1.6 | 3.2 | 0.00 | 0.00 | 0.00 | 85 | 1010.9 |
| 20260906104557 | 23 | 95 | 1.6 | 4.8 | 0.00 | 0.00 | 0.00 | 85 | 1010.8 |
| 20260906103057 | 23 | 192 | 0.0 | 0.0 | 0.00 | 0.00 | 0.00 | 84 | 1010.5 |
| 20260906101555 | 24 | 192 | 0.0 | 0.0 | 0.00 | 0.00 | 0.00 | 83 | 1010.5 |
| 20260906100055 | 24 | 192 | 0.0 | 0.0 | 0.00 | 0.00 | 0.00 | 83 | 1010.5 |
| 20260906094603 | 25 | 192 | 0.0 | 0.0 | 0.00 | 0.00 | 0.00 | 82 | 1010.3 |
| 20260906093050 | 25 | 192 | 0.0 | 0.0 | 0.00 | 0.00 | 0.00 | 81 | 1010.2 |
| 20260906091601 | 25 | 192 | 0.0 | 4.8 | 0.00 | 0.00 | 0.00 | 81 | 1010.0 |
| 20260906090047 | 25 | 158 | 1.6 | 6.4 | 0.00 | 0.00 | 0.00 | 81 | 1009.9 |
| 20260906084545 | 25 | 182 | 0.0 | 3.2 | 0.00 | 0.00 | 0.00 | 80 | 1010.1 |
| 20260906083043 | 25 | 204 | 3.2 | 4.8 | 0.00 | 0.00 | 0.00 | 79 | 1010.0 |
| 20260906081544 | 26 | 182 | 1.6 | 9.7 | 0.00 | 0.00 | 0.00 | 78 | 1010.1 |
| 20260906080041 | 26 | 213 | 4.8 | 9.7 | 0.00 | 0.00 | 0.00 | 78 | 1010.0 |
| 20260906074546 | 26 | 180 | 3.2 | 9.7 | 0.00 | 0.00 | 0.00 | 77 | 1010.2 |
| 20260906073039 | 26 | 150 | 6.4 | 11.3 | 0.00 | 0.00 | 0.00 | 77 | 1010.2 |
| 20260906071534 | 26 | 151 | 6.4 | 11.3 | 0.00 | 0.00 | 0.00 | 76 | 1010.2 |
| 20260906070033 | 26 | 178 | 6.4 | 11.3 | 0.00 | 0.00 | 0.00 | 76 | 1010.4 |
| 20260906064531 | 27 | 165 | 4.8 | 9.7 | 0.00 | 0.00 | 0.00 | 75 | 1010.5 |
| 20260906063030 | 27 | 162 | 3.2 | 9.7 | 0.00 | 0.00 | 0.00 | 75 | 1010.7 |
| 20260906061528 | 27 | 160 | 1.6 | 8.0 | 0.00 | 0.00 | 0.00 | 74 | 1010.8 |
| 20260906060027 | 27 | 192 | 3.2 | 9.7 | 0.00 | 0.00 | 0.00 | 74 | 1010.7 |
| 20260906054538 | 27 | 172 | 3.2 | 9.7 | 0.00 | 0.00 | 0.00 | 74 | 1010.6 |
| 20260906053025 | 27 | 161 | 4.8 | 11.3 | 0.00 | 0.00 | 0.00 | 74 | 1010.6 |
| 20260906051526 | 27 | 132 | 3.2 | 9.7 | 0.00 | 0.00 | 0.00 | 73 | 1010.5 |
| 20260906050021 | 27 | 140 | 6.4 | 11.3 | 0.00 | 0.00 | 0.00 | 72 | 1010.7 |
| 20260906044522 | 28 | 135 | 6.4 | 12.9 | 0.00 | 0.00 | 0.00 | 71 | 1010.6 |
| 20260906043029 | 28 | 128 | 6.4 | 12.9 | 0.00 | 0.00 | 0.00 | 70 | 1010.4 |
| 20260906041519 | 28 | 175 | 8.0 | 17.7 | 0.00 | 0.00 | 0.00 | 70 | 1010.3 |
| 20260906040019 | 28 | 139 | 4.8 | 11.3 | 0.00 | 0.00 | 0.00 | 70 | 1010.4 |
| 20260906034519 | 28 | 126 | 4.8 | 12.9 | 0.00 | 0.00 | 0.00 | 69 | 1010.4 |
| 20260906033024 | 28 | 130 | 9.7 | 14.5 | 0.00 | 0.00 | 0.00 | 69 | 1010.5 |
| 20260906031518 | 29 | 126 | 8.0 | 19.3 | 0.00 | 0.00 | 0.00 | 68 | 1010.6 |
| 20260906030021 | 29 | 101 | 11.3 | 17.7 | 0.00 | 0.00 | 0.00 | 67 | 1010.5 |
| 20260906024516 | 30 | 127 | 12.9 | 20.9 | 0.00 | 0.00 | 0.00 | 66 | 1010.2 |
| 20260906023016 | 30 | 104 | 9.7 | 16.1 | 0.00 | 0.00 | 0.00 | 65 | 1010.0 |
| 20260906021516 | 30 | 115 | 8.0 | 16.1 | 0.00 | 0.00 | 0.00 | 63 | 1009.8 |
| 20260906020015 | 30 | 145 | 12.9 | 25.7 | 0.00 | 0.00 | 0.00 | 60 | 1009.5 |
| 20260906014515 | 31 | 119 | 12.9 | 30.6 | 0.00 | 0.00 | 0.00 | 57 | 1009.3 |
| 20260906013021 | 32 | 123 | 20.9 | 29.0 | 0.00 | 0.00 | 0.00 | 53 | 1009.1 |
| 20260906011513 | 32 | 142 | 4.8 | 9.7 | 0.00 | 0.00 | 0.00 | 48 | 1008.6 |
| 20260906010013 | 33 | 125 | 4.8 | 16.1 | 0.00 | 0.00 | 0.00 | 47 | 1008.6 |
| 20260906004513 | 33 | 105 | 8.0 | 24.1 | 0.00 | 0.00 | 0.00 | 46 | 1008.6 |
| 20260906003012 | 34 | 128 | 14.5 | 27.4 | 0.00 | 0.00 | 0.00 | 44 | 1008.6 |
| 20260906001517 | 35 | 98 | 8.0 | 12.9 | 0.00 | 0.00 | 0.00 | 42 | 1008.5 |
| 20260906000033 | 35 | 128 | 9.7 | 16.1 | 0.00 | 0.00 | 0.00 | 41 | 1008.4 |
| 20260905234511 | 35 | 112 | 14.5 | 22.5 | 0.00 | 0.00 | 0.00 | 40 | 1008.3 |
| 20260905233010 | 35 | 108 | 11.3 | 14.5 | 0.00 | 0.00 | 0.00 | 40 | 1008.2 |
| 20260905231510 | 35 | 123 | 6.4 | 16.1 | 0.00 | 0.00 | 0.00 | 40 | 1008.4 |